Reflectivity
-20 -20 -20 -20 -20 -20 -20 -20 -20 -20 -20 -20 -20 -20 -20 -20 -20 -20 -20 -20 -20 -20 -20 -20 -20 -20 -20
-20 -20 -20 -20 -20 -20 -20 -20 -20 -20 -20 -20 -20 -20 -20 -20 -20 -20 -20 -20 -20 -20 -20 -20 -20 -20 -20
-19 -20 -20 -20 -20 -20 -20 -20 -20 -20 -20 -20 -20 -20 -20 -20 -20 -20 -20 -20 -20 -20 -20 -20 -20 -12 -19
-7 -20 -20 -20 -19 -14 -20 -20 -9 -17 -18 -20 -14 -20 -20 -20 -20 -4 -7 1 12 11 -4 -10 -20 -20 8
-6 -20 -20 -20 -20 -18 -2 -20 -20 -14 -20 0 -20 7 -8 3 -15 5 -20 -11 7 13 12 14 -17 -20 -9
-15 -8 -20 -20 -16 -14 -0 -20 -19 -20 -12 -20 17 1 13 -1 10 -11 -20 -20 11 10 11 11 -20 -20 -11
10 -17 -20 -20 -20 -8 1 -20 -19 -20 -17 -20 -18 -14 17 -4 -13 -20 -1 -20 -20 -6 10 9 6 1 -16
-8 -15 -20 -20 -20 -10 -14 -20 -20 -20 -20 -20 -20 -16 -2 1 -18 -9 -17 -11 -20 -20 2 14 12 -13 -3
3 1 7 -13 10 2 -20 -20 -20 -20 -2 -6 -8 -20 -20 -20 -11 4 -9 10 -20 -20 -8 11 9 4 5
10 5 7 -20 -1 -14 -20 -20 -20 -20 -20 -20 -20 -20 -9 -0 -6 -9 1 2 -20 -20 13 -5 -20 -20 -20
13 -15 1 -12 -20 -20 -20 -20 -19 -2 -8 -10 -15 -7 15 5 -16 -20 -20 -2 -15 -4 4 12 -20 -20 -20
7 11 11 4 -20 -20 -20 -20 -20 -20 -20 -10 6 -3 -13 5 12 5 1 -7 -16 -20 -20 4 8 -20 -15
-3 18 12 8 -7 -20 -20 -20 3 4 -12 -7 -5 13 9 13 -4 10 23 15 7 13 -0 -20 -16 -20 -20
10 0 13 21 2 -11 -20 -20 5 -13 -20 -20 -17 14 10 16 13 7 15 14 10 17 21 16 16 3 -2
21 14 16 19 11 -0 -20 -20 -0 -9 -20 -20 -20 -12 12 13 17 15 14 10 13 16 19 9 13 4 12
22 24 19 8 23 -8 -20 -20 -20 -20 -16 -20 -20 -5 5 6 17 5 10 14 12 16 14 14 24 10 6
29 25 22 13 29 -17 -20 -3 -20 -4 -18 -20 -20 -20 -15 -20 -2 18 0 14 13 12 15 15 20 22 7
Wind_Speed
8 9 11 11 10 9 7 9 8 13 13 13 13 14 14 15 15 14 13 13 14 16 17 18 18 18 19
10 9 12 10 11 12 9 8 9 12 14 13 14 14 13 14 14 14 13 14 13 13 14 16 17 19 20
9 7 9 10 10 10 7 10 8 13 18 19 19 16 14 13 14 13 12 11 11 11 13 14 15 19 20
8 8 6 8 7 9 9 8 8 10 12 11 12 9 10 13 12 11 9 9 10 12 17 15 15 16 18
8 8 7 7 8 7 5 7 8 6 10 10 8 5 5 9 6 8 6 5 10 12 13 15 14 14 16
7 10 10 8 6 7 6 6 5 5 6 11 8 6 2 3 5 2 5 6 9 9 10 10 11 11 12
11 11 12 8 6 8 8 5 7 7 6 9 6 7 3 3 4 4 5 8 8 8 9 7 8 8 8
14 13 10 7 7 6 6 6 7 7 7 6 6 7 3 3 4 2 6 7 9 6 7 5 1 4 7
16 16 12 8 6 3 5 4 5 3 2 5 4 2 1 2 3 2 5 4 4 3 3 6 6 3 7
8 11 11 9 12 11 6 6 5 4 1 3 3 0 3 1 2 1 1 4 3 3 4 3 0 2 5
9 9 7 5 4 4 6 6 5 6 3 2 2 2 1 2 2 1 1 1 2 3 4 3 4 4 4
8 8 7 5 5 6 7 5 5 6 3 0 3 1 0 1 2 1 2 2 2 1 3 7 11 13 10
8 8 7 5 5 4 4 4 4 4 3 3 5 5 3 3 2 2 3 0 2 1 3 4 2 3 3
8 7 4 4 4 4 4 5 3 3 4 3 4 5 3 4 2 2 1 3 1 2 3 4 4 4 5
7 6 6 5 4 4 3 3 4 3 3 2 2 3 4 1 1 2 2 2 2 2 2 4 4 4 4
6 6 6 6 5 3 2 4 5 4 3 2 2 2 1 4 9 2 2 2 1 2 2 3 2 2 3
7 6 5 6 7 5 5 4 4 4 2 2 2 2 3 2 1 12 2 2 2 2 2 2 3 2 2
Wind_Direction
275 283 294 297 297 293 292 295 288 274 266 254 242 242 244 247 246 241 241 242 243 248 254 256 257 260 259
265 276 276 284 292 293 282 282 288 282 276 275 260 240 238 240 241 237 238 243 244 250 256 255 258 258 260
263 261 278 283 284 281 299 296 296 280 270 262 254 245 240 235 237 233 235 242 249 258 257 255 263 270 268
257 262 265 276 283 284 289 295 301 307 294 283 268 233 243 242 238 238 228 235 255 268 269 264 254 251 256
252 261 258 268 273 278 284 295 292 297 290 281 266 229 219 216 225 211 211 222 257 264 273 272 264 256 252
238 255 260 264 266 274 284 290 300 294 344 310 323 304 186 91 100 206 247 255 266 280 288 281 271 264 256
240 233 260 249 255 274 277 276 273 286 311 291 304 289 177 130 150 270 276 263 265 271 275 289 295 288 286
243 249 245 257 257 262 279 281 275 270 246 257 264 246 177 154 167 324 294 280 264 265 279 291 50 71 32
233 240 237 208 214 215 244 254 282 264 243 252 237 238 243 211 155 216 34 342 254 234 235 150 157 121 61
229 234 238 231 224 230 223 234 245 298 56 293 338 117 283 207 187 272 254 14 52 114 154 158 337 88 76
224 221 218 208 180 197 199 210 218 239 37 27 307 314 215 316 312 318 330 356 10 51 105 119 118 113 100
224 206 207 196 196 192 188 199 222 244 337 99 263 283 280 288 250 347 335 23 30 34 48 73 82 91 85
221 210 206 188 160 165 162 182 210 229 219 220 238 260 240 240 206 196 164 227 37 48 56 41 39 33 93
220 208 154 139 170 172 178 176 191 197 195 225 255 223 240 226 177 171 161 172 105 68 89 59 47 50 73
204 181 170 165 173 166 163 154 201 177 169 151 33 65 64 53 174 138 137 99 85 114 89 93 36 34 61
205 183 180 177 173 157 151 189 216 214 179 151 183 223 178 64 38 111 77 97 83 82 72 92 87 28 53
201 186 175 177 188 182 183 186 204 214 170 140 185 231 196 193 57 34 104 101 104 79 59 65 125 129 120